Location: La Fredeussais
(48.1780°N, 1.3980°W)
Time: 04:40:16
(UTC+00:00)

X-37B - Pass Details

Date: 01 August 2021
Orbit: 381 x 393 km, 45.0° (Epoch: 29 August)

Event Time Altitude Azimuth Distance (km) Brightness Sun altitude
Exits shadow 03:31:42 - 181° (S) 1,560 3.2 -10.3°
Reaches altitude 10° 03:32:39 10° 166° (SSE) 1,392 3.1 -10.2°
Maximum altitude 03:33:37 11° 148° (SSE) 1,329 3.2 -10.0°
Drops below altitude 10° 03:34:36 10° 129° (SE) 1,395 3.5 -9.9°
Sets 03:37:53 0° 92° (E) 2,253 5.2 -9.5°
